TimeEST,TemperatureF,Dew PointF,Humidity,Sea Level PressureIn,VisibilityMPH,Wind Direction,Wind SpeedMPH,Gust SpeedMPH,PrecipitationIn,Events,Conditions,WindDirDegrees,DateUTC
12:55 AM,59.0,58.6,99,29.59,10.0,WSW,9.2,-,N/A,,Partly Cloudy,240,2012-12-11 05:55:00
1:04 AM,59.0,59.0,100,29.60,10.0,WSW,9.2,-,N/A,,Mostly Cloudy,250,2012-12-11 06:04:00
1:07 AM,59.0,59.0,100,29.59,10.0,WSW,9.2,-,N/A,,Mostly Cloudy,250,2012-12-11 06:07:00
1:51 AM,59.0,59.0,100,29.63,10.0,North,12.7,-,N/A,Rain,Light Rain,350,2012-12-11 06:51:00
1:53 AM,59.0,57.2,94,29.63,10.0,NNW,11.5,-,N/A,Rain,Light Rain,340,2012-12-11 06:53:00
1:55 AM,58.1,56.5,94,29.64,9.0,North,15.0,18.4,0.00,Rain,Light Rain,350,2012-12-11 06:55:00
2:04 AM,53.6,51.8,94,29.65,10.0,North,15.0,-,N/A,Rain,Light Rain,360,2012-12-11 07:04:00
2:08 AM,51.8,50.0,94,29.65,10.0,North,18.4,-,N/A,,Light Drizzle,10,2012-12-11 07:08:00
2:09 AM,51.8,48.2,88,29.66,10.0,North,17.3,-,N/A,,Overcast,360,2012-12-11 07:09:00
2:15 AM,50.0,46.4,87,29.67,10.0,North,16.1,-,N/A,,Overcast,360,2012-12-11 07:15:00
2:24 AM,50.0,44.6,82,29.68,10.0,North,15.0,-,N/A,,Mostly Cloudy,10,2012-12-11 07:24:00
2:38 AM,48.2,44.6,87,29.70,10.0,NNW,13.8,23.0,N/A,Rain,Light Rain,340,2012-12-11 07:38:00
2:50 AM,46.4,42.8,87,29.71,10.0,NNW,12.7,-,N/A,Rain,Light Rain,340,2012-12-11 07:50:00
2:55 AM,46.8,42.1,84,29.71,10.0,NNW,12.7,20.7,0.00,Rain,Light Rain,340,2012-12-11 07:55:00
3:04 AM,46.4,41.0,81,29.70,10.0,North,12.7,21.9,N/A,,Overcast,350,2012-12-11 08:04:00
3:49 AM,46.4,41.0,81,29.72,10.0,North,5.8,-,N/A,Rain,Light Rain,10,2012-12-11 08:49:00
3:55 AM,45.7,41.2,84,29.72,10.0,North,8.1,-,0.00,Rain,Light Rain,10,2012-12-11 08:55:00
4:12 AM,44.6,41.0,87,29.71,10.0,North,6.9,-,N/A,Rain,Light Rain,10,2012-12-11 09:12:00
4:40 AM,44.6,41.0,87,29.73,6.0,NNW,4.6,-,N/A,Rain,Rain,330,2012-12-11 09:40:00
4:43 AM,44.6,41.0,87,29.74,6.0,Variable,5.8,-,N/A,Rain,Rain,0,2012-12-11 09:43:00
4:45 AM,44.6,41.0,87,29.74,6.0,North,5.8,-,N/A,Rain,Rain,350,2012-12-11 09:45:00
4:48 AM,44.6,41.0,87,29.74,7.0,NNW,6.9,-,N/A,Rain,Light Rain,340,2012-12-11 09:48:00
4:55 AM,44.4,41.9,91,29.74,10.0,NNW,4.6,-,0.04,Rain,Light Rain,340,2012-12-11 09:55:00
5:18 AM,44.6,42.8,93,29.77,6.0,NNW,5.8,-,N/A,Rain,Rain,330,2012-12-11 10:18:00
5:30 AM,44.6,42.8,93,29.78,7.0,NW,6.9,-,N/A,Rain,Light Rain,310,2012-12-11 10:30:00
5:53 AM,44.6,42.8,93,29.81,5.0,WNW,6.9,-,N/A,Rain,Light Rain,300,2012-12-11 10:53:00
5:54 AM,44.6,42.8,93,29.81,5.0,WNW,8.1,-,N/A,Rain,Light Rain,290,2012-12-11 10:54:00
5:55 AM,43.7,42.1,94,29.81,5.0,WNW,9.2,-,0.06,Rain,Light Rain,300,2012-12-11 10:55:00
5:57 AM,44.6,42.8,93,29.81,6.0,WNW,8.1,-,N/A,Rain,Light Rain,290,2012-12-11 10:57:00
6:00 AM,44.6,42.8,93,29.82,8.0,NW,8.1,-,N/A,Rain,Light Rain,310,2012-12-11 11:00:00
6:03 AM,42.8,41.0,93,29.82,10.0,NW,8.1,-,N/A,,Mostly Cloudy,310,2012-12-11 11:03:00
6:05 AM,42.8,41.0,93,29.82,10.0,NW,9.2,-,N/A,Rain,Light Rain,310,2012-12-11 11:05:00
6:24 AM,42.8,41.0,93,29.81,10.0,North,8.1,-,N/A,,Mostly Cloudy,350,2012-12-11 11:24:00
6:44 AM,42.8,42.8,100,29.83,10.0,NW,4.6,-,N/A,Rain,Light Rain,320,2012-12-11 11:44:00
6:55 AM,43.7,42.1,94,29.83,10.0,NW,4.6,-,0.00,Rain,Light Rain,320,2012-12-11 11:55:00
6:56 AM,42.8,42.8,100,29.83,10.0,NW,4.6,-,N/A,,Overcast,310,2012-12-11 11:56:00
7:55 AM,43.9,42.1,93,29.85,10.0,NNW,9.2,-,N/A,,Mostly Cloudy,330,2012-12-11 12:55:00
8:55 AM,45.1,39.6,81,29.88,10.0,NNW,10.4,-,N/A,,Mostly Cloudy,330,2012-12-11 13:55:00
9:55 AM,47.5,39.9,75,29.92,10.0,NNW,8.1,-,N/A,,Mostly Cloudy,340,2012-12-11 14:55:00
10:55 AM,46.8,36.9,68,29.94,10.0,NW,8.1,-,N/A,,Overcast,310,2012-12-11 15:55:00
11:55 AM,47.1,36.1,66,29.94,10.0,NNW,9.2,-,N/A,,Overcast,340,2012-12-11 16:55:00
12:55 PM,48.4,36.0,62,29.95,10.0,NNW,9.2,-,N/A,,Overcast,340,2012-12-11 17:55:00
1:55 PM,48.0,33.4,57,29.95,10.0,NNW,8.1,-,N/A,,Overcast,340,2012-12-11 18:55:00
2:55 PM,47.7,34.2,60,29.98,10.0,WNW,6.9,-,N/A,,Overcast,300,2012-12-11 19:55:00
3:55 PM,48.2,33.4,57,30.00,10.0,WNW,5.8,-,N/A,,Mostly Cloudy,290,2012-12-11 20:55:00
4:55 PM,45.0,33.6,64,30.04,10.0,WNW,3.5,-,N/A,,Mostly Cloudy,300,2012-12-11 21:55:00
5:55 PM,45.9,32.5,60,30.06,10.0,West,4.6,-,N/A,,Overcast,280,2012-12-11 22:55:00
6:55 PM,44.1,30.7,59,30.10,10.0,WNW,6.9,-,N/A,,Mostly Cloudy,290,2012-12-11 23:55:00
7:55 PM,42.6,28.8,58,30.12,10.0,WNW,9.2,-,N/A,,Overcast,300,2012-12-12 00:55:00
8:55 PM,41.9,28.6,59,30.15,10.0,WNW,8.1,-,N/A,,Overcast,290,2012-12-12 01:55:00
9:55 PM,39.9,28.2,63,30.17,10.0,WNW,5.8,-,N/A,,Clear,290,2012-12-12 02:55:00
10:55 PM,39.2,27.1,62,30.18,10.0,NW,6.9,-,N/A,,Clear,310,2012-12-12 03:55:00
11:55 PM,37.4,27.3,67,30.19,10.0,NW,4.6,-,N/A,,Clear,310,2012-12-12 04:55:00